This is the latest recevied weather packets stored in our database for station/object W5GMO. If no packets are shown the sender has not sent any weather packets the latest 10 day(s).
| Time | Temp. | Humidity | Pressure | Rain* | Wind** | Luminosity | Snow |
|---|---|---|---|---|---|---|---|
| 1788649147 | 27.22° C | 1% | 1011.2 hPa | 0 mm | - | 22 W/m² | - |
| 1788648842 | 27.22° C | 1% | 1011 hPa | 0 mm | - | 35 W/m² | - |
| 1788648532 | 27.22° C | 1% | 1011.1 hPa | 0 mm | - | 40 W/m² | - |
| 1788648227 | 27.22° C | 1% | 1011.1 hPa | 0 mm | - | 36 W/m² | - |
| 1788647922 | 27.78° C | 1% | 1011 hPa | 0 mm | - | 38 W/m² | - |
| 1788647619 | 27.78° C | 1% | 1011 hPa | 0 mm | - | 57 W/m² | - |
| 1788647314 | 27.78° C | 1% | 1011.1 hPa | 0 mm | - | 69 W/m² | - |
| 1788647013 | 28.33° C | 1% | 1011.1 hPa | 0 mm | - | 78 W/m² | - |
| 1788646709 | 28.33° C | 1% | 1011 hPa | 0 mm | - | 72 W/m² | - |
| 1788646406 | 28.89° C | 1% | 1011.2 hPa | 0 mm | - | 94 W/m² | - |
| 1788646101 | 28.89° C | 1% | 1010.9 hPa | 0 mm | - | 100 W/m² | - |
| 1788645798 | 28.89° C | 1% | 1010.9 hPa | 0 mm | - | 114 W/m² | - |
| 1788645496 | 28.89° C | 1% | 1010.9 hPa | 0 mm | - | 123 W/m² | - |
| 1788645193 | 27.78° C | 1% | 1010.9 hPa | 0 mm | - | 139 W/m² | - |
| 1788644888 | 28.33° C | 1% | 1010.7 hPa | 0 mm | - | 133 W/m² | - |
| 1788644583 | 28.89° C | 1% | 1010.7 hPa | 0 mm | - | 155 W/m² | - |
| 1788644278 | 28.89° C | 1% | 1010.8 hPa | 0 mm | - | 150 W/m² | - |
| 1788643975 | 28.33° C | 1% | 1010.8 hPa | 0 mm | - | 249 W/m² | - |
| 1788643670 | 28.33° C | 1% | 1010.5 hPa | 0 mm | - | 185 W/m² | - |
| 1788643369 | 28.33° C | 1% | 1010.7 hPa | 0 mm | - | 77 W/m² | - |
| 1788643069 | 28.33° C | 1% | 1010.4 hPa | 0 mm | - | 91 W/m² | - |
| 1788642764 | 27.78° C | 1% | 1010.4 hPa | 0 mm | - | 219 W/m² | - |
| 1788642461 | 28.33° C | 1% | 1010.3 hPa | 0 mm | - | 113 W/m² | - |
| 1788642155 | 28.33° C | 1% | 1010.5 hPa | 0 mm | - | 98 W/m² | - |
| 1788641853 | 28.33° C | 1% | 1010.5 hPa | 0 mm | - | 88 W/m² | - |
* Rain latest hour (hover to see other rain measurements)
** Current wind speed in m/s (hover to see current wind gust speed)